Weather History for Claremore, OK

Change the Weather History Date:

Friday, October 26, 2012

  Actual Average (KTUL) Record (KTUL)
Temperature  
Mean Temperature 44 °F 59 °F  
Max Temperature 50 °F 70 °F 90 °F (1950)
Min Temperature 37 °F 48 °F 27 °F (1957)
Degree Days  
Heating Degree Days 22 7  
Month to date heating degree days 121  
Since 1 July heating degree days 145  
Cooling Degree Days 0 1  
Month to date cooling degree days 57  
Year to date cooling degree days 2022  
Moisture  
Dew Point 31 °F    
Average Humidity 66    
Maximum Humidity 81    
Minimum Humidity 47    
Precipitation  
Precipitation 0.00 in 0.12 in 2.48 in (1919)
Month to date precipitation 3.31  
Year to date precipitation 35.05  
Sea Level Pressure  
Sea Level Pressure 30.36 in    
Wind  
Wind Speed 12 mph (North)    
Max Wind Speed 20 mph    
Max Gust Speed 28 mph    
Visibility 10 miles    
Events      
T = Trace of Precipitation, MM = Missing Value Source: NWS Daily Summary

Daily Weather History Graph

Daily Weather History Graph

Search for Another Location

Airport:

Trip Planner

Search our weather history database for the weather conditions in past years. The results will help you decide how hot, cold, wet, or windy it might be!

Date:

Astronomy

Oct. 26, 2012 Rise Set
Actual Time 7:39 AM CDT 6:31 PM CDT
Civil Twilight 7:13 AM CDT 6:57 PM CDT
Nautical Twilight 6:43 AM CDT 7:28 PM CDT
Astronomical Twilight 6:13 AM CDT 7:57 PM CDT
Moon 4:44 PM CDT (10/26) 4:41 AM CDT (10/26)
Length of Visible Light 11h 44m
Length of Day
10h 51m
Waxing Gibbous, 91% of the Moon is Illuminated
Oct 26
Waxing Gibbous
Oct 29
Full
Nov 6
Last Quarter
Nov 13
New
Nov 20
First Quarter

Hourly Weather History & Observations

Time (CDT) Temp. Windchill Dew Point Humidity Pressure Visibility Wind Dir Wind Speed Gust Speed Precip Events Conditions
12:15 AM 42.8 °F 37.5 °F 35.6 °F 76% 30.25 in 10.0 mi North 9.2 mph 16.1 mph N/A   Scattered Clouds
12:35 AM 42.8 °F 38.0 °F 35.6 °F 76% 30.25 in 10.0 mi North 8.1 mph - N/A   Scattered Clouds
12:55 AM 42.8 °F 37.0 °F 35.6 °F 76% 30.25 in 10.0 mi North 10.4 mph - N/A   Scattered Clouds
1:35 AM 42.8 °F 36.6 °F 33.8 °F 70% 30.26 in 10.0 mi North 11.5 mph 19.6 mph N/A   Overcast
1:55 AM 42.8 °F 36.6 °F 33.8 °F 70% 30.26 in 10.0 mi NNE 11.5 mph 19.6 mph N/A   Overcast
2:15 AM 42.8 °F 36.6 °F 33.8 °F 70% 30.27 in 10.0 mi North 11.5 mph 19.6 mph N/A   Overcast
2:35 AM 42.8 °F 36.2 °F 33.8 °F 70% 30.27 in 10.0 mi North 12.7 mph 20.7 mph N/A   Overcast
2:55 AM 41.0 °F 33.9 °F 33.8 °F 76% 30.27 in 10.0 mi North 12.7 mph 18.4 mph N/A   Overcast
3:15 AM 41.0 °F 33.9 °F 33.8 °F 76% 30.28 in 10.0 mi North 12.7 mph 19.6 mph N/A   Overcast
3:35 AM 41.0 °F 35.2 °F 33.8 °F 76% 30.28 in 10.0 mi North 9.2 mph - N/A   Overcast
3:55 AM 41.0 °F 35.2 °F 33.8 °F 76% 30.28 in 10.0 mi North 9.2 mph 18.4 mph N/A   Mostly Cloudy
4:15 AM 39.2 °F 32.0 °F 32.0 °F 75% 30.28 in 10.0 mi North 11.5 mph 23.0 mph N/A   Mostly Cloudy
4:35 AM 37.4 °F 28.9 °F 32.0 °F 81% 30.28 in 10.0 mi North 13.8 mph 20.7 mph N/A   Mostly Cloudy
5:15 AM 39.2 °F 32.0 °F 32.0 °F 75% 30.29 in 10.0 mi North 11.5 mph 16.1 mph N/A   Scattered Clouds
5:35 AM 37.4 °F 28.9 °F 32.0 °F 81% 30.29 in 10.0 mi North 13.8 mph 19.6 mph N/A   Scattered Clouds
5:55 AM 37.4 °F 30.3 °F 32.0 °F 81% 30.31 in 10.0 mi North 10.4 mph 19.6 mph N/A   Scattered Clouds
6:15 AM 37.4 °F 29.3 °F 32.0 °F 81% 30.31 in 10.0 mi North 12.7 mph 17.3 mph N/A   Scattered Clouds
6:35 AM 37.4 °F 29.8 °F 32.0 °F 81% 30.32 in 10.0 mi North 11.5 mph - N/A   Scattered Clouds
6:55 AM 37.4 °F 31.4 °F 32.0 °F 81% 30.33 in 10.0 mi NNE 8.1 mph 19.6 mph N/A   Scattered Clouds
7:35 AM 39.2 °F 30.2 °F 32.0 °F 75% 30.35 in 10.0 mi NE 17.3 mph 26.5 mph N/A   Mostly Cloudy
7:55 AM 37.4 °F 28.2 °F 30.2 °F 75% 30.36 in 10.0 mi NNE 16.1 mph 19.6 mph N/A   Mostly Cloudy
8:15 AM 37.4 °F 29.3 °F 30.2 °F 75% 30.37 in 10.0 mi NE 12.7 mph 19.6 mph N/A   Mostly Cloudy
8:35 AM 37.4 °F 28.9 °F 30.2 °F 75% 30.38 in 10.0 mi NNE 13.8 mph 25.3 mph N/A   Mostly Cloudy
9:15 AM 37.4 °F 27.2 °F 30.2 °F 75% 30.40 in 10.0 mi NNE 19.6 mph 27.6 mph N/A   Overcast
9:35 AM 39.2 °F 29.6 °F 30.2 °F 70% 30.40 in 10.0 mi NNE 19.6 mph 26.5 mph N/A   Overcast
9:55 AM 39.2 °F 30.5 °F 30.2 °F 70% 30.40 in 10.0 mi North 16.1 mph 23.0 mph N/A   Overcast
10:15 AM 41.0 °F 32.5 °F 30.2 °F 65% 30.40 in 10.0 mi NNE 17.3 mph 25.3 mph N/A   Overcast
10:35 AM 41.0 °F 32.2 °F 32.0 °F 70% 30.41 in 10.0 mi NNE 18.4 mph 25.3 mph N/A   Mostly Cloudy
10:55 AM 42.8 °F 35.4 °F 32.0 °F 66% 30.42 in 10.0 mi NNE 15.0 mph 24.2 mph N/A   Mostly Cloudy
11:15 AM 41.0 °F 33.9 °F 30.2 °F 65% 30.43 in 10.0 mi NNW 12.7 mph 20.7 mph N/A   Overcast
11:35 AM 42.8 °F 35.8 °F 32.0 °F 66% 30.43 in 10.0 mi North 13.8 mph 19.6 mph N/A   Overcast
12:15 PM 44.6 °F 37.8 °F 32.0 °F 61% 30.43 in 10.0 mi NNE 15.0 mph 23.0 mph N/A   Mostly Cloudy
12:35 PM 44.6 °F 39.2 °F 32.0 °F 61% 30.43 in 10.0 mi North 10.4 mph 23.0 mph N/A   Mostly Cloudy
12:55 PM 46.4 °F 39.8 °F 30.2 °F 53% 30.42 in 10.0 mi NNE 16.1 mph 23.0 mph N/A   Scattered Clouds
1:15 PM 46.4 °F 40.4 °F 32.0 °F 57% 30.42 in 10.0 mi North 13.8 mph 21.9 mph N/A   Scattered Clouds
1:35 PM 46.4 °F 40.1 °F 32.0 °F 57% 30.40 in 10.0 mi North 15.0 mph 25.3 mph N/A   Mostly Cloudy
1:55 PM 46.4 °F 40.1 °F 32.0 °F 57% 30.40 in 10.0 mi North 15.0 mph 20.7 mph N/A   Scattered Clouds
2:15 PM 46.4 °F 40.7 °F 32.0 °F 57% 30.38 in 10.0 mi North 12.7 mph 21.9 mph N/A   Scattered Clouds
2:35 PM 46.4 °F 39.8 °F 32.0 °F 57% 30.38 in 10.0 mi North 16.1 mph 23.0 mph N/A   Clear
2:55 PM 48.2 °F - 30.2 °F 50% 30.37 in 10.0 mi NNE 17.3 mph 25.3 mph N/A   Clear
3:15 PM 48.2 °F - 30.2 °F 50% 30.37 in 10.0 mi North 16.1 mph 25.3 mph N/A   Clear
3:35 PM 48.2 °F - 30.2 °F 50% 30.37 in 10.0 mi North 15.0 mph 20.7 mph N/A   Clear
3:55 PM 48.2 °F - 30.2 °F 50% 30.37 in 10.0 mi North 11.5 mph 21.9 mph N/A   Clear
4:15 PM 50.0 °F - 30.2 °F 47% 30.36 in 10.0 mi NNE 11.5 mph 16.1 mph N/A   Clear
4:35 PM 50.0 °F - 30.2 °F 47% 30.36 in 10.0 mi NNE 12.7 mph 19.6 mph N/A   Clear
4:55 PM 50.0 °F - 30.2 °F 47% 30.35 in 10.0 mi North 11.5 mph 18.4 mph N/A   Clear
5:15 PM 48.2 °F - 30.2 °F 50% 30.35 in 10.0 mi North 15.0 mph - N/A   Clear
5:35 PM 46.4 °F 41.9 °F 30.2 °F 53% 30.35 in 10.0 mi North 9.2 mph 19.6 mph N/A   Clear
5:55 PM 46.4 °F 42.4 °F 30.2 °F 53% 30.36 in 10.0 mi North 8.1 mph 16.1 mph N/A   Clear
6:15 PM 46.4 °F 42.9 °F 30.2 °F 53% 30.36 in 10.0 mi NNE 6.9 mph - N/A   Clear
6:35 PM 44.6 °F 40.7 °F 30.2 °F 57% 30.37 in 10.0 mi North 6.9 mph - N/A   Clear
6:55 PM 44.6 °F 40.2 °F 30.2 °F 57% 30.37 in 10.0 mi North 8.1 mph - N/A   Clear
7:15 PM 42.8 °F 38.6 °F 30.2 °F 61% 30.38 in 10.0 mi North 6.9 mph - N/A   Clear
7:35 PM 42.8 °F 38.6 °F 30.2 °F 61% 30.39 in 10.0 mi North 6.9 mph - N/A   Clear
8:15 PM 41.0 °F 35.8 °F 30.2 °F 65% 30.39 in 10.0 mi North 8.1 mph - N/A   Clear
8:35 PM 41.0 °F 35.8 °F 30.2 °F 65% 30.39 in 10.0 mi North 8.1 mph - N/A   Clear
9:15 PM 41.0 °F 35.8 °F 30.2 °F 65% 30.39 in 10.0 mi North 8.1 mph - N/A   Clear
9:35 PM 41.0 °F 35.8 °F 30.2 °F 65% 30.39 in 10.0 mi NNE 8.1 mph - N/A   Clear
9:55 PM 39.2 °F 34.2 °F 30.2 °F 70% 30.40 in 10.0 mi North 6.9 mph - N/A   Clear
10:15 PM 37.4 °F 32.1 °F 30.2 °F 75% 30.40 in 10.0 mi NNE 6.9 mph - N/A   Clear
10:35 PM 37.4 °F 32.8 °F 30.2 °F 75% 30.40 in 10.0 mi North 5.8 mph - N/A   Clear
10:55 PM 37.4 °F 33.8 °F 30.2 °F 75% 30.40 in 10.0 mi NNE 4.6 mph - N/A   Clear
11:15 PM 37.4 °F 31.4 °F 30.2 °F 75% 30.40 in 10.0 mi North 8.1 mph - N/A   Clear
11:35 PM 37.4 °F 32.8 °F 30.2 °F 75% 30.40 in 10.0 mi North 5.8 mph - N/A   Clear